Weather in Zavolzhye

Russia / Samara Oblast     52°56′56″N   48°36′15″E
temp.,
°C
wind,
m/s
gust,
m/s
humid.,
%
clouds,
%
prec.,
mm/h
press.,
hPa
HPBL,
m
1 march, mon
mon101:00−16nw369381 0.0 1017118
04:00−19wnw349540 0.0 101951
07:00−20wnw33950 0.0 102136
10:00−16nw36920 0.0 1022250
13:00−12nw368953 0.0 1022468
16:00−9nw358776 0.0 1023604
19:00−13sw1196100 0.0 102221
22:00−14wsw339182 0.1 102224
2 march, tue
tue201:00−14sw349251 0.0 102073
04:00−12sw4109276 0.0 1017239
07:00−7sw71492100 0.3 1013497
10:00−3wsw81489100 0.7 1010656
13:000wsw81492100 0.3 1007809
16:000wsw81397100 0.6 1004775
19:00+1w61197100 0.4 1003473
22:00−1wnw4995100 0.6 1003344
3 march, wed
wed301:00−5wnw479030 0.0 1003115
04:00−7wnw479239 0.0 1004108
07:00−8wnw47932 0.0 1004104
10:00−6wnw48921 0.0 1006253
13:00−2nw57896 0.0 1005619
16:00−2nw588553 0.1 1006845
19:00−7nw498880 0.1 1007167
22:00−9nw5119054 0.1 1010258
4 march, thu
thu401:00−11wnw47910 0.0 1010130
04:00−10w49910 0.0 1011149
07:00−9w511890 0.0 1010234
10:00−5w6138621 0.0 1010462
13:00−2wsw71184100 0.0 1008886
16:00−1wsw81484100 0.0 1006961
19:00−1sw91784100 0.0 1004783
22:000wsw91685100 0.0 10031017
5 march, fri
fri501:00−1sw81782100 0.0 1001821
04:00−1wsw91882100 0.0 1000661
07:00−1wsw7158694 0.0 1003603
10:00−2nnw488497 0.3 1006505
13:00−2wnw358099 0.0 1009522
16:00−1wnw248398 0.0 1011425
19:00−6wnw228399 0.0 101221
22:00−9nnw128792 0.0 101421